Trapani, Italy

4:04 AM CEST on July 27, 2017 (GMT +0200)
Birgi Mil

Weather History for LICT - January, 2013

Change the Weather History Date:

Sunday, January 6, 2013

  Actual Average Record
Temperature  
Mean Temperature 54 °F -  
Max Temperature 60 °F 59 °F 66 °F (2001)
Min Temperature 47 °F 47 °F 35 °F (2002)
Degree Days  
Heating Degree Days 12    
Growing Degree Days 4 (Base 50)    
Moisture  
Dew Point 50 °F    
Average Humidity 83    
Maximum Humidity 94    
Minimum Humidity 68    
Precipitation  
Precipitation 0.00 in 0.07 in - ()
Sea Level Pressure  
Sea Level Pressure 30.18 in    
Wind  
Wind Speed 3 mph ()    
Max Wind Speed 10 mph    
Max Gust Speed -    
Visibility 6.8 miles    
Events      
Averages and records for this station are not official NWS values.
T = Trace of Precipitation, MM = Missing Value Source: Averaged Metar Reports

Daily Weather History Graph

Daily Weather History Graph

Search for Another Location

Airport or City:

Trip Planner

Search our weather history database for the weather conditions in past years. The results will help you decide how hot, cold, wet, or windy it might be!

Date:

Astronomy

Jan. 06, 2013 Rise Set
Actual Time 7:26 AM CET 5:05 PM CET
Civil Twilight 6:57 AM CET 5:35 PM CET
Nautical Twilight 6:24 AM CET 6:07 PM CET
Astronomical Twilight 5:52 AM CET 6:39 PM CET
Moon 1:23 AM CET (1/6) 12:19 PM CET (1/6)
Length of Visible Light 10h 37m
Length of Day
9h 39m
Waning Crescent, 36% of the Moon is Illuminated
Jan 6
Waning Crescent
Jan 11
New
Jan 19
First Quarter
Jan 27
Full
Feb 3
Last Quarter

Hourly Weather History & Observations

Time (CET) Temp. Dew Point Humidity Pressure Visibility Wind Dir Wind Speed Gust Speed Precip Events Conditions
12:55 AM 48.2 °F 46.4 °F 93% 30.15 in 6.2 mi Calm Calm - N/A   Scattered Clouds
1:00 AM 48 °F 46 °F 91% 30.16 in 7 mi Calm Calm - -   Partly Cloudy
1:55 AM 48.2 °F 46.4 °F 93% 30.15 in 6.2 mi SSE 1.2 mph - N/A   Scattered Clouds
2:55 AM 48.2 °F 46.4 °F 93% 30.15 in 6.2 mi SSW 1.2 mph - N/A   Scattered Clouds
3:55 AM 50.0 °F 48.2 °F 94% 30.15 in 6.2 mi Calm Calm - N/A   Scattered Clouds
4:55 AM 50.0 °F 48.2 °F 94% 30.15 in 6.2 mi Calm Calm - N/A   Scattered Clouds
5:55 AM 48.2 °F 46.4 °F 93% 30.15 in 6.2 mi Calm Calm - N/A   Partly Cloudy
6:55 AM 53.6 °F 50.0 °F 88% 30.18 in 6.2 mi NW 3.5 mph - N/A   Scattered Clouds
7:00 AM 54 °F 51 °F 85% 30.19 in 9 mi NW 3.5 mph - -   Mostly Cloudy
7:55 AM 55.4 °F 51.8 °F 88% 30.18 in 6.2 mi NNW 9.2 mph - N/A   Scattered Clouds
8:55 AM 57.2 °F 51.8 °F 82% 30.18 in 6.2 mi North 4.6 mph - N/A   Scattered Clouds
9:55 AM 59.0 °F 50.0 °F 72% 30.21 in 6.2 mi North 9.2 mph - N/A   Partly Cloudy
10:55 AM 59.0 °F 50.0 °F 72% 30.21 in 6.2 mi NNW 8.1 mph - N/A   Partly Cloudy
11:55 AM 59.0 °F 51.8 °F 77% 30.21 in 6.2 mi NNW 9.2 mph - N/A   Partly Cloudy
12:55 PM 60.8 °F 51.8 °F 72% 30.18 in 6.2 mi North 9.2 mph - N/A   Mostly Cloudy
1:00 PM 60 °F 52 °F 68% 30.21 in 16 mi North 9.2 mph - -   Mostly Cloudy
1:55 PM 59.0 °F 50.0 °F 72% 30.18 in 6.2 mi NNW 8.1 mph - N/A   Scattered Clouds
2:55 PM 59.0 °F 50.0 °F 72% 30.18 in 6.2 mi NNW 10.4 mph - N/A   Scattered Clouds
3:55 PM 59.0 °F 50.0 °F 72% 30.18 in 6.2 mi NW 9.2 mph - N/A   Mostly Cloudy
4:55 PM 57.2 °F 50.0 °F 77% 30.18 in 6.2 mi NNW 5.8 mph - N/A   Overcast
5:55 PM 57.2 °F 50.0 °F 77% 30.18 in 6.2 mi NW 8.1 mph - N/A   Overcast
6:55 PM 57.2 °F 51.8 °F 82% 30.18 in 6.2 mi NNW 5.8 mph - N/A   Mostly Cloudy
7:00 PM 57 °F 51 °F 74% 30.20 in 10 mi NNW 5.8 mph - -   Mostly Cloudy
7:55 PM 55.4 °F 51.8 °F 88% 30.18 in 6.2 mi NNW 1.2 mph - N/A   Mostly Cloudy
8:55 PM 57.2 °F 51.8 °F 82% 30.18 in 6.2 mi NNW 3.5 mph - N/A   Mostly Cloudy
9:55 PM 57.2 °F 51.8 °F 82% 30.18 in 6.2 mi NNW 4.6 mph - N/A   Scattered Clouds
10:55 PM 55.4 °F 53.6 °F 94% 30.18 in 6.2 mi West 2.3 mph - N/A   Mostly Cloudy
11:55 PM 53.6 °F 50.0 °F 88% 30.18 in 6.2 mi WNW 5.8 mph - N/A   Mostly Cloudy